sat.trackr.live / text

‹ back to catalog

STARLINK-36903

NORAD 68001 · 2026-039R

PAYLOAD ACTIVE UNKNOWN

§ Identity

Operator
Country
US
Launch date
2026-02-27
Launch site
AFETR
Launch vehicle
Mass (kg)
RCS (m²)

Purposes: comms

External: N2YO · Heavens-Above · Gunter

§ Orbital elements

Epoch: 2026-05-24T23:05:27.646656Z

Period
94.27 min
Inclination
43.0026°
Eccentricity
0.0001509
Mean motion
15.27593049 rev/d
Perigee alt
482.0 km
Apogee alt
484.0 km
Semi-major
6,861.1 km
B*
7.4484e-4
RAAN
338.5929°
Arg perigee
260.5095°
Mean anomaly
99.5586°
Rev number
1,336

§ Raw data

STARLINK-369031 68001U 26039R   26144.96212554  .00020299  00000+0  74484-3 0  99972 68001  43.0026 338.5929 0001509 260.5095  99.5586 15.27593049 13363

JSON: /api/v1/satellites/68001 · /tle

For live sub-satellite position, see the globe view (requires WebGL).

§ Visibility from observer

Set your observer location to see the next 7 days of passes ≥ 10°. The values pass through the URL so the page stays shareable.

No JS? Fill the form by hand. The geolocation button needs JavaScript.